sat.trackr.live / text

‹ back to catalog

STARLINK-11508 [DTC]

NORAD 62515 · 2025-004E

PAYLOAD ACTIVE UNKNOWN

§ Identity

Operator
Country
US
Launch date
2025-01-08
Launch site
AFETR
Launch vehicle
Mass (kg)
RCS (m²)

Purposes: comms

External: N2YO · Heavens-Above · Gunter

§ Orbital elements

Epoch: 2026-09-21T11:34:26.031936Z

Period
91.66 min
Inclination
42.9993°
Eccentricity
0.0001794
Mean motion
15.71076707 rev/d
Perigee alt
354.6 km
Apogee alt
357.0 km
Semi-major
6,734.0 km
B*
1.6419e-3
RAAN
330.3749°
Arg perigee
194.0037°
Mean anomaly
166.0781°
Rev number
9,800

§ Raw data

STARLINK-11508 [DTC]1 62515U 25004E   26264.48224574  .00218010  00000+0  16419-2 0  99902 62515  42.9993 330.3749 0001794 194.0037 166.0781 15.71076707 98008

JSON: /api/v1/satellites/62515 · /tle

For live sub-satellite position, see the globe view (requires WebGL).

§ Visibility from observer

Set your observer location to see the next 7 days of passes ≥ 10°. The values pass through the URL so the page stays shareable.

No JS? Fill the form by hand. The geolocation button needs JavaScript.